This demonstration page uses our WeatherBlox Daily Observations layout. Learn more.

Left ArrowRight Arrow

39.08367, -84.50855

Hourly Observations for April 11, 2017

Temp ( °F °C ) Dew Point ( °F °C ) Humidity (%) Winds ( mph kmh ) Pressure ( in mb ) Visibility ( mi km ) Precip ( " mm )
12:53 am 00:53 Partly Cloudy 68 20 47 8.3 47 47 SW 10 17 30.05 1018 10 16.0934 0 0
1:53 am 01:53 Mostly Cloudy 70 21.1 46 7.8 42 42 SW 14 22 30.06 1018 10 16.0934 0 0
2:53 am 02:53 Clear 66 18.9 48 8.9 52 52 SSW 12 19 30.06 1018 10 16.0934 0 0
3:53 am 03:53 Mostly Clear 66 18.9 48 8.9 52 52 SW 10 17 30.05 1018 10 16.0934 0 0
4:53 am 04:53 Mostly Clear 64 17.8 50 10 60 60 SSW 9 15 30.06 1018 10 16.0934 0 0
5:53 am 05:53 Mostly Clear 63 17.2 51 10.6 65 65 SSW 7 11 30.06 1018 10 16.0934 0 0
6:37 am 06:37 Cloudy with Thunderstorms 64 17.8 52 11.1 65 65 W 10 17 30.06 1018 10 16.0934 0 0
6:53 am 06:53 Cloudy with Nearby Thunderstorms 63 17.2 55 12.8 76 76 W 16 26 30.12 1020 6 9.65604 0.02 0.508
7:01 am 07:01 Cloudy with Heavy Thunderstorms 60 15.6 57 13.9 90 90 WSW 12 19 30.09 1019 1.75 2.816345 0.11 2.794
7:14 am 07:14 Cloudy with Heavy Thunderstorms 59 15 57 14 94 94 SW 10 17 30.12 1020 3 4.82802 0 0
7:22 am 07:22 Cloudy with Light Rain 58 14.4 58 14.4 100 100 SW 7 11 30.12 1020 5 8.0467 0.2 5.08
7:33 am 07:33 Cloudy with Nearby Thunderstorms 59 15 58 14.4 96 96 SW 6 9 30.12 1020 8 12.87472 0.21 5.334
7:48 am 07:48 Cloudy with Light Rain 57 14 57 14 100 100 SSW 6 9 30.15 1021 7 11.26538 0 0
7:53 am 07:53 Cloudy with Light Rain 58 14.4 58 14.4 100 100 S 7 11 30.14 1021 6 9.65604 0.24 6.096
8:53 am 08:53 Cloudy with Light Rain 59 15 59 15 100 100 SW 6 9 30.16 1021 5 8.0467 0.1 2.54
9:53 am 09:53 Mostly Cloudy 61 16.1 61 16.1 100 100 S 9 15 30.16 1021 10 16.0934 0.01 0.254
10:53 am 10:53 Cloudy 62 16.7 60 15.6 93 93 SSW 6 9 30.18 1022 10 16.0934 0 0
11:27 am 11:27 Cloudy with Light Rain 63 17.2 61 16.1 93 93 S 8 13 30.15 1021 10 16.0934 0 0.0254
11:53 am 11:53 Cloudy with Light Rain 63 17.2 61 16.1 93 93 SSW 5 7 30.17 1022 7 11.26538 0 0.0254
12:53 pm 12:53 Cloudy 62 16.7 61 16.1 96 96 S 5 7 30.18 1022 10 16.0934 0 0.0254
1:49 pm 13:49 Cloudy with Rain 63 17 61 16 94 94 W 5 7 30.18 1022 4 6.43736 0 0
1:53 pm 13:53 Cloudy with Light Rain 62 16.7 60 15.6 93 93 W 6 9 30.19 1023 4 6.43736 0.05 1.27
2:53 pm 14:53 Cloudy 62 16.7 60 15.6 93 93 SSE 3 6 30.19 1022 10 16.0934 0.02 0.508
3:45 pm 15:45 Cloudy 64 17.8 59 15 84 84 S 5 7 30.15 1021 10 16.0934 0 0
3:53 pm 15:53 Cloudy 63 17.2 59 15 87 87 S 3 6 30.18 1022 10 16.0934 0 0
4:28 pm 16:28 Partly Cloudy 64 18 61 16 88 88 SW 5 7 30.15 1021 10 16.0934 0 0
4:53 pm 16:53 Partly Cloudy 65 18.3 60 15.6 84 84 SSE 5 7 30.16 1021 10 16.0934 0 0
5:53 pm 17:53 Mostly Sunny 64 17.8 59 15 84 84 SSE 3 6 30.16 1022 10 16.0934 0 0
6:53 pm 18:53 Sunny 63 17.2 60 15.6 90 90 S 5 7 30.16 1021 10 16.0934 0 0
7:53 pm 19:53 Mostly Sunny 61 16.1 59 15 93 93 Calm 30.19 1022 10 16.0934 0 0
8:53 pm 20:53 Mostly Cloudy 61 16.1 55 12.8 81 81 W 5 7 30.22 1023 10 16.0934 0 0
9:53 pm 21:53 Clear 60 15.6 50 10 70 70 NNW 9 15 30.24 1024 10 16.0934 0 0
10:53 pm 22:53 Clear 58 14.4 49 9.4 72 72 NNW 8 13 30.26 1025 10 16.0934 0 0
11:53 pm 23:53 Clear 56 13.3 49 9.4 77 77 NNW 3 6 30.27 1025 10 16.0934 0 0

Powered by AerisWeather